COSMOS 951 DEB

Satellite information

Favourite Embed

Satellite Type and Status

DEBRISIN ORBIT

Key statistics

Satellite COSMOS 951 DEB at a glance.

Uptime

17623

Days in orbit

Revolutions

≈ 13.8

Per day

Orbit

LEO

Low Earth Orbit

Inclination

83.0

Latest

Satellite identification and parameters

Extended collection of information and parameters for COSMOS 951 DEB.

Object identification

Identified? True

Debris? True

Object name: COSMOS 951 DEB

International designator: 1977-087D

Object number (NORAD): 37236

Object ID (CCSDS): 37236

Country: COMMONWEALTH OF INDEPENDENT STATES (CIS)

Current information (Y/N): Y

RCS size: SMALL

Orbital parameters

Period: 104.318 minutes

Inclination: 82.9681 deg

SMA: 7340.613 km

Apoapsis: 988.586 km

Periapsis: 936.37 km

RAAN: 293.6815 deg

Eccentricy: 0.00355668

Argument of periapsis: 105.8789 deg

Mean anomaly: 47.3349 deg

Mean motion: 13.80397767 rev/day

Mean motion (dot): 0.00001266 rev/day2

B* drag term: 0.0011914929 1/REarth

Two-line elements (TLE)

Creation date: Dec. 11, 2025, 7:14 p.m.

Reference frame: TEME

Reference center: EARTH

Epoch: Dec. 11, 2025, 8:07 a.m. UTC

TLE line 0: 0 COSMOS 951 DEB

TLE line 1: 1 37236U 77087D 25345.33838398 .00001266 00000-0 11915-2 0 9998

TLE line 2: 2 37236 82.9681 293.6815 0035567 105.8789 47.3349 13.80397767420237

Live tracking on map

Real-time ground track for satellite COSMOS 951 DEB.

In-orbit conjunctions

A list of the most updated potential collisions computed for object COSMOS 951 DEB.

Target Orbit TCA Probability of collision Miss distance Type
METEOR 1-22 DEB LEO 2024-09-26 12:17:49 0.001888651 679.0 (m) DEBRIS
SL-8 DEB LEO 2024-07-27 06:23:13 0.00081733 50.0 (m) DEBRIS

Associated space launch

The soviet Zenit-2M (Gektor, 11F690) was an improved version of the Zenit-2 area surveillance reconnaissance satellite. It was part of the Vostok-based Zenit-family.

COSMOS 951 DEB was lifted into orbit during the mission ‘Soyuz U | Zenit-2M 81’, on board a Soyuz U space rocket.

The launch took place on Sept. 13, 1977, 3:10 p.m. from 43/3 (43L).

For more information about the launch, click the button.

Launch to space Soyuz U | Zenit-2M 81
Soyuz U | Zenit-2M 81

Agency: N/A

Status: Launch Successful

Launch date: Sept. 13, 1977, 3:10 p.m. UTC

Rocket: Soyuz U

Launch pad: 43/3 (43L)

Location: Plesetsk Cosmodrome, Russian Federation

...

Latest news about this satellite

There are no fresh news available about this satellite. Check back as we update our databases every day.


Newsletter sign-up

Weekly statistics, charts and insights to help you stay on top of the space industry.